Regional Weather Roundup
Issued by NWS

Home | Current Version | Previous Version | Graphics & Text | Print | Product List | Glossary On
Versions: 1 2 3 4 5 6 7 8 9 10 11 12 13 14 15 16 17 18 19 20 21 22 23 24 25 26 27 28 29 30 31 32 33 34 35 36 37 38 39 40 41 42 43 44 45 46 47 48 49 50
000
ASUS43 KIND 220459
RWRIN

WEATHER ROUNDUP FOR INDIANA
NATIONAL WEATHER SERVICE INDIANAPOLIS IN
1200 AM EST WED FEB 22 2017

NOTE: "FAIR" INDICATES FEW OR NO CLOUDS BELOW 12,000 FEET WITH NO
SIGNIFICANT WEATHER AND/OR OBSTRUCTIONS TO VISIBILITY.

* - STATION DOES NOT REPORT WEATHER SUCH AS PRECIPITATION OR FOG.

+ - STATION NOT QUALITY CONTROLLED BY THE NATIONAL WEATHER SERVICE.
    USE DATA WITH CAUTION...ESPECIALLY DEWPOINT AND RELATIVE
    HUMIDITY OBSERVATIONS.

INZ001>003-010>013-019-020-220600-
NORTHWEST INDIANA

CITY           SKY/WX    TMP DP  RH WIND       PRES   REMARKS
GARY /AIRPORT/ CLEAR     55  52  89 CALM      29.87F
KNOX *+        MOCLDY    50  36  57 S8        29.89F
MICHIGAN CITY+ PTCLDY    54  52  94 S3        29.87F
RENSSELAER +   PTCLDY    54  52  94 S8        29.88F

$$

LMZ046-743>745-220600-
SOUTHERN LAKE MICHIGAN

STATION/POSITION TIME  TEMP    WIND        PRES    WAVE
                       AIR SEA DIR/SP/G            HT
                 (UTC) (F)     (DEG/KT/KT) (MB)    (FT)
BURNS HARBOR     0440   55     190/ 10/ 11 1011.9F
MICHIGAN CITY    0430   56     150/  8/ 11   N/A

$$

INZ004-005-014>016-021>024-220600-
NORTH CENTRAL INDIANA

CITY           SKY/WX    TMP DP  RH WIND       PRES   REMARKS
GOSHEN         PTCLDY    50  46  86 S6        29.90F
SOUTH BEND     MOCLDY    49  48  97 SE3       29.89F
WARSAW +       CLOUDY    50  46  87 CALM      29.91F

$$

INZ006>009-017-018-025>027-220600-
NORTHEAST INDIANA

CITY           SKY/WX    TMP DP  RH WIND       PRES   REMARKS
ANGOLA *+      MOCLDY    45  45 100 CALM      29.91S
AUBURN +       MOCLDY    50  46  87 CALM      29.93R FOG
FORT WAYNE     CLOUDY    51  47  86 SW5       29.92F
KENDALLVILLE + CLOUDY    50  48  93 S6        29.92S

$$

INZ028-029-035-036-043>045-051>053-220600-
WEST CENTRAL INDIANA

CITY           SKY/WX    TMP DP  RH WIND       PRES   REMARKS
GREENCASTLE +  CLOUDY    52  52 100 S5        29.93F
LAFAYETTE      CLOUDY    55  51  86 S3        29.91F
TERRE HAUTE    PTCLDY    54  51  90 SE3       29.92F

$$

INZ030>032-037>040-046>048-054>057-064-065-220600-
CENTRAL INDIANA

CITY           SKY/WX    TMP DP  RH WIND       PRES   REMARKS
CP ATTERBURY + CLOUDY    54  54 100 S5        29.94F
FRANKFORT +    CLOUDY    55  52  89 S5        29.94S
GREENWOOD *+   MOCLDY    55  55  97 S5        29.95S
INDIANAPOLIS   CLOUDY    56  53  90 S7        29.93F
-EAGLE CREEK   CLOUDY    57  53  86 S5        29.93S
KOKOMO +       CLOUDY    52  49  89 S5        29.93F
MT COMFORT *+  CLOUDY    54  52  94 CALM      29.94S
SHELBYVILLE    CLOUDY    57  53  86 S9        29.93F

$$

INZ033-034-041-042-049-050-058-059-220600-
EAST CENTRAL INDIANA

CITY           SKY/WX    TMP DP  RH WIND       PRES   REMARKS
MUNCIE         CLOUDY    57  52  83 SW5       29.94S

$$

INZ060-061-067>069-081>083-085>088-220600-
SOUTHWEST INDIANA

CITY           SKY/WX    TMP DP  RH WIND       PRES   REMARKS
EVANSVILLE     CLOUDY    60  54  80 CALM      29.91F
HUNTINGBURG *+ CLOUDY    60  54  80 SE7       29.92F

$$

INZ062-063-066-070>080-084-089>092-220600-
SOUTH CENTRAL AND SOUTHEAST INDIANA

CITY           SKY/WX    TMP DP  RH WIND       PRES   REMARKS
BLOOMINGTON    CLOUDY    56  53  90 SE5       29.92F FOG
MADISON *+     CLOUDY    55  54  94 E7        29.97F
SEYMOUR +      CLOUDY    55  55 100 E5        29.94F FOG

$$





USA.gov is the U.S. government's official web portal to all federal, state and local government web resources and services.